Plum, TX

5:18 AM CST on February 22, 2017 (GMT -0600)
La Grange

Weather History for K3T5 - April, 2013

Change the Weather History Date:

Sunday, April 28, 2013

  Actual Average (KAUS) Record (KAUS)
Temperature  
Mean Temperature 72 °F -  
Max Temperature 82 °F 81 °F 93 °F (1955)
Min Temperature 62 °F 59 °F 43 °F (2008)
Cooling Degree Days 7    
Growing Degree Days 22 (Base 50)    
Moisture  
Dew Point 63 °F    
Average Humidity 73    
Maximum Humidity 92    
Minimum Humidity 45    
Precipitation  
Precipitation 0.06 in - - ()
Sea Level Pressure  
Sea Level Pressure 29.95 in    
Wind  
Wind Speed 5 mph (SSE)    
Max Wind Speed 20 mph    
Max Gust Speed 28 mph    
Visibility 9 miles    
Events Fog , Rain , Thunderstorm    
Averages and records for this station are not official NWS values.
T = Trace of Precipitation, MM = Missing Value Source: NWS Daily Summary

Daily Weather History Graph

Daily Weather History Graph

Search for Another Location

Airport or City:

Trip Planner

Search our weather history database for the weather conditions in past years. The results will help you decide how hot, cold, wet, or windy it might be!

Date:

Astronomy

Apr. 28, 2013 Rise Set
Actual Time 6:47 AM CDT 8:03 PM CDT
Civil Twilight 6:22 AM CDT 8:28 PM CDT
Nautical Twilight 5:52 AM CDT 8:58 PM CDT
Astronomical Twilight 5:21 AM CDT 9:29 PM CDT
Moon 11:27 PM CDT (4/28) 9:13 AM CDT (4/28)
Length of Visible Light 14h 06m
Length of Day
13h 15m
Waning Gibbous, 88% of the Moon is Illuminated
Apr 28
Waning Gibbous
May 2
Last Quarter
May 9
New
May 17
First Quarter
May 24
Full

Hourly Weather History & Observations

Time (CDT) Temp. Heat Index Dew Point Humidity Pressure Visibility Wind Dir Wind Speed Gust Speed Precip Events Conditions
12:15 AM 69.3 °F - 65.3 °F 87% 30.02 in 10.0 mi SSE 4.6 mph - N/A Rain Light Rain
12:35 AM 68.9 °F - 65.1 °F 88% 30.03 in 10.0 mi South 10.4 mph 16.1 mph 0.01 in Rain , Thunderstorm Light Thunderstorms and Rain
12:55 AM 69.3 °F - 65.3 °F 87% 30.00 in 10.0 mi South 16.1 mph 19.6 mph 0.02 in Rain Light Rain
1:15 AM 69.1 °F - 65.3 °F 88% 29.98 in 10.0 mi SSE 12.7 mph 17.3 mph 0.01 in Rain Light Rain
1:35 AM 69.3 °F - 65.5 °F 88% 29.98 in 10.0 mi SE 10.4 mph 16.1 mph 0.01 in Rain Light Rain
1:55 AM 69.3 °F - 65.5 °F 88% 29.93 in 7.0 mi SSE 19.6 mph 27.6 mph 0.03 in Thunderstorm Unknown
2:15 AM 69.3 °F - 64.6 °F 85% 29.96 in 10.0 mi SSE 9.2 mph 16.1 mph 0.01 in Rain , Thunderstorm Light Thunderstorms and Rain
2:35 AM 69.8 °F - 64.2 °F 82% 29.98 in 10.0 mi ENE 9.2 mph 17.3 mph 0.01 in   Mostly Cloudy
2:55 AM 70.2 °F - 64.6 °F 82% 29.99 in 10.0 mi North 4.6 mph - 0.01 in   Overcast
3:15 AM 69.1 °F - 65.1 °F 87% 29.99 in 10.0 mi North 3.5 mph - N/A Thunderstorm Overcast
3:35 AM 68.9 °F - 65.1 °F 88% 29.99 in 10.0 mi Calm Calm - N/A   Overcast
3:55 AM 68.4 °F - 64.4 °F 87% 29.97 in 10.0 mi East 3.5 mph - N/A   Mostly Cloudy
4:15 AM 67.5 °F - 63.7 °F 88% 29.96 in 10.0 mi East 3.5 mph - N/A   Scattered Clouds
4:35 AM 66.7 °F - 63.1 °F 88% 29.95 in 10.0 mi Calm Calm - N/A   Clear
4:55 AM 66.2 °F - 62.8 °F 89% 29.96 in 7.0 mi Calm Calm - N/A   Clear
5:15 AM 65.5 °F - 62.4 °F 90% 29.96 in 7.0 mi Calm Calm - N/A   Clear
5:35 AM 64.6 °F - 61.7 °F 90% 29.97 in 4.0 mi Calm Calm - N/A   Clear
5:55 AM 64.4 °F - 61.7 °F 91% 29.97 in 4.0 mi Calm Calm - N/A   Clear
6:15 AM 63.5 °F - 60.8 °F 91% 29.97 in 1.2 mi Calm Calm - N/A   Mist
6:35 AM 63.3 °F - 60.6 °F 91% 29.98 in 1.5 mi Calm Calm - N/A   Mist
6:55 AM 62.6 °F - 59.9 °F 91% 29.99 in 0.2 mi Calm Calm - N/A Fog Fog
7:15 AM 62.1 °F - 59.4 °F 91% 29.99 in 0.5 mi Calm Calm - N/A Fog Fog
7:35 AM 63.1 °F - 60.3 °F 90% 29.99 in 1.8 mi Calm Calm - N/A   Scattered Clouds
7:55 AM 64.4 °F - 61.5 °F 90% 30.00 in 1.0 mi Calm Calm - N/A   Overcast
8:15 AM 65.3 °F - 62.2 °F 90% 30.00 in 1.0 mi Calm Calm - N/A   Overcast
8:35 AM 66.2 °F - 62.8 °F 89% 30.00 in 10.0 mi Calm Calm - N/A   Scattered Clouds
8:55 AM 66.7 °F - 63.1 °F 88% 30.00 in 10.0 mi Calm Calm - N/A   Scattered Clouds
9:15 AM 68.4 °F - 61.7 °F 79% 29.99 in 10.0 mi Calm Calm - N/A   Clear
9:35 AM 70.7 °F - 60.6 °F 70% 29.98 in 10.0 mi Calm Calm - N/A   Clear
9:55 AM 72.0 °F - 59.9 °F 66% 29.99 in 10.0 mi Calm Calm - N/A   Clear
10:15 AM 73.6 °F - 55.8 °F 54% 29.99 in 10.0 mi South 4.6 mph - N/A   Clear
10:35 AM 74.1 °F - 55.6 °F 52% 29.99 in 10.0 mi Calm Calm - N/A   Clear
10:55 AM 75.0 °F - 55.2 °F 50% 29.99 in 10.0 mi Calm Calm - N/A   Clear
11:15 AM 76.6 °F - 54.0 °F 45% 29.99 in 10.0 mi SSW 5.8 mph - N/A   Clear
11:35 AM 77.2 °F - 54.1 °F 45% 29.99 in 10.0 mi SSE 3.5 mph - N/A   Clear
11:55 AM 77.2 °F - 54.9 °F 46% 29.99 in 10.0 mi South 4.6 mph - N/A   Clear
12:15 PM 77.0 °F - 55.8 °F 48% 29.98 in 10.0 mi SSW 6.9 mph - N/A   Clear
12:35 PM 77.7 °F - 56.8 °F 48% 29.98 in 10.0 mi South 8.1 mph - N/A   Clear
12:55 PM 77.9 °F - 58.6 °F 51% 29.98 in 10.0 mi South 10.4 mph - N/A   Clear
1:15 PM 78.8 °F - 59.0 °F 51% 29.97 in 10.0 mi SSW 10.4 mph - N/A   Clear
1:55 PM 80.1 °F 80.9 °F 60.1 °F 50% 29.95 in 10.0 mi SSW 10.4 mph - N/A   Clear
2:15 PM 80.4 °F 81.4 °F 61.3 °F 52% 29.94 in 10.0 mi South 9.2 mph - N/A   Clear
2:35 PM 80.6 °F 81.6 °F 61.7 °F 52% 29.93 in 10.0 mi WSW 5.8 mph - N/A   Clear
2:55 PM 80.8 °F 81.6 °F 61.3 °F 51% 29.92 in 10.0 mi South 6.9 mph - N/A   Clear
3:15 PM 81.9 °F 82.8 °F 62.1 °F 51% 29.91 in 10.0 mi South 6.9 mph - N/A   Clear
3:35 PM 81.9 °F 82.8 °F 62.2 °F 51% 29.90 in 10.0 mi South 4.6 mph - N/A   Clear
3:55 PM 82.6 °F 83.8 °F 63.1 °F 52% 29.89 in 10.0 mi SSW 8.1 mph - N/A   Clear
4:15 PM 81.7 °F 82.6 °F 62.1 °F 51% 29.88 in 10.0 mi South 4.6 mph - N/A   Clear
4:35 PM 82.6 °F 83.6 °F 62.6 °F 51% 29.88 in 10.0 mi SSW 4.6 mph - N/A   Clear
4:55 PM 82.4 °F 84.2 °F 65.5 °F 56% 29.88 in 10.0 mi SSE 3.5 mph - N/A   Scattered Clouds
5:15 PM 82.0 °F 83.9 °F 65.3 °F 57% 29.88 in 10.0 mi SE 6.9 mph - N/A   Scattered Clouds
5:35 PM 81.9 °F 83.9 °F 65.8 °F 58% 29.88 in 10.0 mi SE 6.9 mph - N/A   Scattered Clouds
5:55 PM 81.5 °F 83.4 °F 65.3 °F 58% 29.87 in 10.0 mi SSE 9.2 mph - N/A   Scattered Clouds
6:15 PM 81.5 °F 83.6 °F 66.0 °F 59% 29.87 in 10.0 mi SSE 8.1 mph - N/A   Clear
6:35 PM 80.6 °F 82.4 °F 65.3 °F 59% 29.87 in 10.0 mi SSE 5.8 mph - N/A   Clear
6:55 PM 80.6 °F 82.7 °F 66.0 °F 61% 29.87 in 10.0 mi SSE 9.2 mph - N/A   Scattered Clouds
7:35 PM 78.4 °F - 68.0 °F 70% 29.88 in 10.0 mi SE 5.8 mph - N/A   Clear
7:55 PM 77.0 °F - 67.6 °F 73% 29.88 in 10.0 mi SSE 3.5 mph - N/A   Clear
8:15 PM 75.0 °F - 67.5 °F 77% 29.89 in 10.0 mi SSE 3.5 mph - N/A   Clear
8:35 PM 73.6 °F - 67.3 °F 81% 29.90 in 10.0 mi Calm Calm - N/A   Clear
8:55 PM 73.6 °F - 67.8 °F 82% 29.90 in 10.0 mi Calm Calm - N/A   Clear
9:15 PM 72.7 °F - 67.3 °F 83% 29.91 in 10.0 mi Calm Calm - N/A   Clear
9:35 PM 72.0 °F - 67.3 °F 85% 29.92 in 10.0 mi Calm Calm - N/A   Clear
9:55 PM 70.7 °F - 67.1 °F 88% 29.93 in 10.0 mi Calm Calm - N/A   Clear
10:15 PM 70.7 °F - 67.1 °F 88% 29.93 in 10.0 mi SSE 4.6 mph - N/A   Clear
10:35 PM 71.6 °F - 67.1 °F 86% 29.93 in 10.0 mi Calm Calm - N/A   Clear
10:55 PM 70.7 °F - 66.9 °F 88% 29.93 in 10.0 mi Calm Calm - N/A   Clear
11:15 PM 69.8 °F - 66.6 °F 89% 29.93 in 10.0 mi Calm Calm - N/A   Clear
11:35 PM 68.9 °F - 66.2 °F 91% 29.93 in 10.0 mi Calm Calm - N/A   Clear
11:55 PM 68.2 °F - 65.8 °F 92% 29.93 in 10.0 mi Calm Calm - N/A   Clear